Location: ???????
(60.4260°N, 46.9069°E)
Time: 22:10:13
(UTC+00:00)

Cosmos 1943 - Pass Details

Date: 30 March 2020
Orbit: 832 x 851 km, 71.0° (Epoch: 24 May)

Event Time Altitude Azimuth Distance (km) Brightness Sun altitude
Rises 01:33:31 0° 316° (NW) 3,423 6.1 -6.7°
Reaches altitude 10° 01:36:00 10° 320° (NW) 2,487 5.4 -6.4°
Maximum altitude 01:41:41 65° 42° (NE) 935 3.8 -5.7°
Drops below altitude 10° 01:47:22 10° 125° (SE) 2,482 6.2 -5.0°
Sets 01:49:51 0° 129° (SE) 3,415 6.9 -4.7°
